Lapse_Rate
7.1 7.1 7.1 6.8 6.5 6.6 6.9 6.5 6.4 6.6 6.5 7.0 7.1 6.6 6.6 6.5 6.5 6.4 6.4 6.5 6.3 6.2 6.2 6.1 6.1 6.1 6.1 6.2 6.2 6.3 6.3 6.3 6.3 6.4 6.4 6.3 6.2 6.0 5.8 5.6 5.5 5.4 5.5 5.2 5.1 5.0 4.7 4.6 4.4
6.9 6.9 6.8 6.9 6.6 6.6 6.4 5.8 6.1 6.5 6.8 6.7 6.7 6.3 6.1 6.2 6.2 6.5 6.4 6.5 6.4 6.1 6.1 6.1 6.0 6.1 6.1 6.1 6.2 6.2 6.2 6.2 6.2 6.3 6.3 6.3 6.4 6.2 5.9 5.8 5.7 5.5 5.4 5.1 5.0 5.0 4.9 4.8 4.7
6.9 6.8 6.8 6.7 6.3 6.5 5.9 5.6 5.7 6.6 6.6 6.4 6.5 6.3 5.9 6.3 6.4 6.2 6.3 6.3 6.5 6.5 6.2 6.1 6.1 6.1 6.1 6.1 6.3 6.3 6.2 6.2 6.1 6.2 6.2 6.4 6.6 6.5 6.1 5.8 5.7 5.6 5.6 5.4 5.1 5.0 5.2 5.0 4.9
6.8 6.5 6.5 6.6 6.6 5.9 5.6 5.6 6.0 6.3 6.3 6.3 6.3 6.0 5.7 6.2 6.4 6.2 6.2 6.3 6.3 6.5 6.4 6.0 6.0 6.0 6.0 6.1 6.2 6.2 6.2 6.3 6.2 6.2 6.2 6.2 6.4 6.6 6.4 6.2 6.0 6.0 5.8 5.5 5.5 5.5 5.5 5.3 5.1
6.5 6.5 6.3 6.3 6.3 5.6 5.5 5.8 5.8 6.0 6.1 6.2 6.0 5.5 5.8 5.8 6.3 6.0 6.0 6.3 6.2 6.4 6.3 6.0 5.9 5.9 6.0 6.1 6.1 6.1 6.2 6.3 6.2 6.2 6.2 6.3 6.4 6.5 6.6 6.6 6.4 6.3 6.0 5.9 5.5 5.6 5.6 5.5 5.5
6.5 6.4 6.2 6.4 5.9 5.3 5.3 5.7 5.6 5.5 5.8 6.1 5.8 5.5 5.8 5.9 5.8 5.9 6.0 5.8 5.9 6.2 6.2 6.0 6.0 6.0 6.0 5.9 6.0 6.0 6.1 6.1 6.0 6.0 6.1 6.1 6.3 6.4 6.4 6.6 6.6 6.5 6.2 6.2 5.9 5.7 5.6 5.6 5.6
6.2 6.3 6.3 5.8 5.6 5.3 5.3 5.8 5.6 5.5 5.7 6.3 5.9 5.0 5.0 6.4 6.2 5.8 6.0 5.9 5.9 5.9 5.8 5.9 5.8 5.9 5.8 5.8 5.9 5.9 5.9 5.9 5.9 6.0 6.0 6.1 6.1 6.2 6.4 6.6 6.7 6.5 6.5 6.3 6.2 5.9 5.7 5.6 5.6
6.2 6.3 6.0 5.8 5.2 5.0 5.2 5.8 5.6 5.4 5.4 5.8 5.7 5.0 5.4 6.0 5.8 5.6 5.7 5.8 5.6 5.7 5.8 5.6 5.7 5.5 5.7 5.7 5.6 5.7 5.7 5.8 5.8 5.8 5.9 5.9 6.0 6.1 6.3 6.4 6.4 6.5 6.4 6.6 6.4 6.2 6.1 5.8 5.6
6.0 5.9 5.8 5.4 5.1 5.2 5.5 5.8 5.9 5.5 5.1 5.3 5.5 5.3 5.2 5.6 5.6 5.6 5.6 5.7 5.7 5.8 5.8 5.7 5.7 5.8 5.9 5.9 5.8 5.8 5.7 5.7 5.7 5.7 5.7 5.8 5.9 5.9 5.9 6.0 6.2 6.3 6.4 6.4 6.5 6.4 6.2 5.9 5.7
5.8 5.8 5.7 5.4 5.4 5.9 5.8 5.4 5.4 5.5 5.4 5.5 5.5 5.0 5.3 5.4 5.9 5.9 5.8 5.7 5.7 5.8 5.7 5.7 5.8 5.7 5.8 5.9 5.9 5.7 5.7 5.7 5.7 5.8 5.7 5.7 5.6 5.6 5.7 5.8 5.9 6.0 6.1 6.3 6.5 6.4 6.4 6.3 6.0
5.8 5.6 5.7 6.0 5.7 5.5 5.6 5.5 5.5 5.6 5.9 5.3 5.4 5.5 5.3 5.5 5.6 5.6 5.7 5.7 5.6 5.7 5.8 5.8 5.7 5.7 5.6 5.6 5.8 5.7 5.7 5.6 5.7 5.8 5.7 5.7 5.7 5.7 5.7 5.7 5.8 5.8 5.8 6.0 6.2 6.2 6.1 6.3 6.2
5.6 5.3 5.6 5.9 6.1 5.8 5.8 5.7 5.8 5.9 6.3 5.4 5.4 5.5 5.6 5.5 5.5 5.6 5.6 5.5 5.5 5.5 5.6 5.6 5.6 5.5 5.6 5.4 5.3 5.4 5.5 5.6 5.7 5.9 5.9 5.9 5.8 5.7 5.7 5.7 5.7 5.6 5.8 5.7 5.9 6.0 5.9 6.1 6.2
5.6 5.8 5.9 5.5 5.5 5.7 5.8 5.9 5.7 6.3 5.9 6.0 5.9 5.6 5.8 5.7 5.5 5.4 5.6 5.8 5.6 5.6 5.6 5.6 5.5 5.5 5.5 5.5 5.5 5.4 5.2 5.3 5.4 5.6 5.8 5.8 5.9 5.8 5.8 5.7 5.6 5.4 5.6 5.6 5.7 5.7 5.7 5.9 6.1
5.7 5.7 5.7 5.6 5.5 5.6 5.9 6.0 5.5 6.1 6.3 6.2 6.1 6.1 5.8 5.8 5.8 5.9 5.7 5.8 5.7 5.6 5.7 5.5 5.5 5.4 5.5 5.6 5.6 5.7 5.5 5.4 5.3 5.2 5.3 5.3 5.5 5.7 5.7 5.8 5.8 5.6 5.5 5.4 5.5 5.6 5.5 5.5 5.7
5.9 5.8 5.7 5.7 5.7 5.6 5.9 6.1 5.8 6.0 6.4 6.3 6.1 6.0 5.9 5.8 5.8 5.9 6.0 6.0 5.9 5.8 5.8 5.8 5.6 5.6 5.7 5.7 5.9 5.8 5.7 5.6 5.5 5.4 5.2 5.1 5.3 5.4 5.5 5.5 5.7 5.8 5.7 5.6 5.5 5.5 5.5 5.4 5.4
5.7 5.8 5.8 5.6 5.6 5.5 5.8 5.9 5.8 6.2 6.1 6.1 6.0 6.0 6.1 6.1 6.1 6.1 6.1 6.0 6.0 6.1 6.2 6.2 6.1 6.0 6.0 5.9 5.9 5.9 5.9 5.8 5.7 5.7 5.5 5.2 5.0 5.2 5.3 5.5 5.5 5.6 5.5 5.4 5.6 5.4 5.4 5.5 5.3
5.8 5.6 5.4 5.1 5.4 5.3 5.6 5.8 5.7 5.5 5.7 5.8 5.8 5.9 6.0 6.0 5.9 6.0 6.1 6.3 6.6 6.8 6.7 6.6 6.4 6.2 6.0 5.8 5.6 5.5 5.6 5.6 5.6 5.5 5.4 5.2 5.1 4.9 5.0 5.2 5.2 5.3 5.4 5.3 5.4 5.6 5.5 5.4 5.3
4.9 5.0 4.9 5.0 4.7 4.9 5.1 6.1 6.1 5.9 5.7 5.9 6.0 6.0 5.7 5.8 5.7 5.8 5.8 5.6 5.5 5.6 5.8 6.0 6.0 5.8 5.7 5.5 5.5 5.5 5.4 5.4 5.4 5.5 5.6 5.5 5.2 5.1 4.9 5.1 5.2 5.1 5.2 5.4 5.3 5.2 5.5 5.7 5.7
4.7 4.7 4.8 4.8 4.3 4.8 5.3 5.4 5.9 6.2 6.1 6.0 5.3 5.2 5.2 5.4 5.3 5.1 4.9 4.8 4.9 5.0 5.4 5.5 5.5 5.7 5.8 5.9 5.6 5.2 5.1 5.2 5.1 5.1 5.3 5.4 5.4 5.3 5.1 5.0 5.1 5.2 5.0 5.3 5.5 5.4 5.4 5.5 5.6
4.6 4.5 4.4 4.7 4.3 4.2 4.7 5.5 5.6 5.8 5.7 4.7 5.0 5.1 5.2 4.9 4.8 5.0 5.2 5.3 5.4 5.6 5.7 5.9 5.9 5.8 5.7 5.8 5.8 5.7 5.6 5.4 5.2 5.3 5.1 5.1 5.3 5.4 5.4 5.2 5.0 5.1 5.1 4.9 5.1 5.3 5.4 5.4 5.3
4.5 4.6 4.7 4.1 4.9 4.7 4.5 5.3 4.9 5.1 4.6 4.3 4.9 5.0 4.9 4.9 5.4 5.8 6.0 6.1 6.2 6.1 6.0 5.9 5.8 5.7 5.6 5.5 5.4 5.4 5.4 5.6 5.6 5.2 5.3 5.2 5.2 5.2 5.2 5.2 5.2 5.1 5.1 5.1 5.2 5.0 5.1 5.3 5.4
5.0 4.8 4.6 4.6 4.9 4.8 4.7 4.5 5.1 5.0 4.5 5.4 5.3 5.1 5.1 5.2 5.4 5.7 5.9 5.9 5.8 5.8 5.6 5.6 5.6 5.8 5.9 5.9 6.0 6.0 5.9 6.0 5.8 5.7 5.5 5.6 5.1 5.1 5.1 5.1 5.1 5.2 5.1 5.0 5.1 5.3 5.1 5.2 5.2
5.2 5.0 4.7 4.5 3.5 4.6 4.8 4.5 5.2 4.9 5.1 5.3 5.3 5.3 5.2 5.2 5.3 5.7 5.9 5.8 5.6 5.5 5.8 5.9 5.9 5.8 5.4 5.4 5.6 5.6 5.3 5.4 5.7 5.7 5.8 5.9 5.9 5.8 5.3 5.5 5.2 5.1 5.3 5.2 5.1 5.3 5.2 5.0 5.0
5.9 5.5 4.4 3.7 3.3 2.6 4.5 4.3 5.3 5.1 5.3 5.5 5.5 5.4 5.3 5.5 5.6 5.5 5.2 5.1 5.1 5.2 5.4 5.8 5.8 5.5 4.9 5.0 5.1 4.7 5.0 5.0 5.5 5.8 5.9 6.0 5.9 5.8 5.8 5.9 6.1 5.9 5.4 5.3 5.3 5.3 5.3 5.3 5.1
6.3 6.1 5.2 3.9 4.5 3.5 4.6 4.3 5.7 5.8 5.6 5.7 5.6 5.7 5.4 5.4 5.4 5.2 5.2 5.1 5.0 5.0 5.1 5.2 5.6 5.4 4.8 4.8 4.6 4.6 4.7 4.7 4.9 5.5 6.0 6.2 6.3 6.3 6.2 6.3 6.4 6.4 6.3 6.2 5.5 5.5 5.5 5.5 5.4
6.1 5.9 5.4 3.7 4.6 3.7 5.2 5.1 6.2 6.2 5.9 5.8 5.5 5.2 5.3 5.2 5.2 4.9 4.9 4.8 4.9 5.0 5.0 4.9 5.0 4.9 3.9 3.9 4.1 4.5 4.8 4.8 5.1 5.2 5.5 6.2 6.0 6.3 6.6 6.7 6.9 6.8 6.6 6.5 6.4 5.6 5.4 5.4 5.8
5.7 5.7 5.4 5.0 4.7 4.6 5.5 6.0 6.2 6.1 5.9 5.4 5.6 5.4 5.3 5.1 4.8 4.5 4.6 4.6 4.9 5.0 5.2 5.0 4.8 4.5 4.1 3.5 3.6 3.9 3.9 4.2 4.8 5.2 5.5 5.8 6.2 6.9 6.9 7.1 7.1 7.1 7.1 6.8 6.8 6.2 5.9 5.4 5.3
5.2 5.1 4.8 4.5 4.1 2.9 5.0 5.6 6.3 6.2 5.8 5.7 5.6 5.5 5.4 5.2 5.0 4.9 4.9 4.9 5.0 4.9 5.0 5.1 5.0 4.6 4.1 3.7 3.5 3.9 4.4 4.3 4.3 5.1 6.1 5.9 6.1 6.4 6.9 7.1 6.7 6.9 7.1 6.9 6.6 6.3 6.2 5.7 5.5
5.0 5.0 4.8 4.6 4.5 3.3 3.5 5.5 6.2 6.0 5.8 5.5 5.5 5.4 5.3 5.0 5.1 4.9 5.0 5.0 5.2 5.0 5.1 5.6 5.3 5.1 4.8 4.5 3.7 4.1 4.3 4.5 4.5 5.9 6.1 6.0 6.4 6.5 6.6 6.3 6.6 6.7 6.7 6.8 6.6 6.6 6.5 6.0 5.6
4.6 4.6 4.3 4.2 4.2 4.0 4.1 5.0 6.1 5.8 5.6 5.3 5.6 5.6 5.1 5.1 4.8 5.0 5.3 5.3 5.6 5.5 5.8 5.9 5.9 5.3 4.5 3.9 4.2 4.2 4.3 5.0 5.8 6.3 6.2 6.9 7.0 6.9 6.8 6.8 6.9 6.5 6.6 6.6 6.8 6.6 6.4 6.2 5.5
Wind_Speed
14 15 2 4 4 5 3 3 1 4 4 2 2 6 6 4 4 3 4 4 7 7 8 8 13 12 13 12 13 13 12 11 10 9 7 8 12 7 5 6 5 2 4 9 14 13 14 11 13
10 4 4 2 5 3 4 3 6 3 1 2 5 4 6 3 5 5 1 7 8 7 9 11 12 13 12 12 15 14 13 12 12 11 10 9 11 11 4 4 3 4 10 13 14 15 14 12 11
9 2 3 4 3 3 3 3 3 2 5 6 4 5 4 3 3 3 2 4 7 7 13 3 10 10 10 11 14 14 13 13 12 11 10 7 11 13 6 4 3 5 10 12 16 16 15 12 9
2 4 4 4 3 3 4 1 3 2 6 5 2 6 4 4 3 3 5 5 4 7 10 11 3 5 6 7 9 12 13 13 12 11 7 5 9 12 9 6 6 10 12 13 15 16 17 14 9
2 3 4 1 2 3 3 3 5 5 4 4 3 3 4 3 8 7 6 6 5 5 9 8 6 6 6 6 7 8 10 12 12 12 11 9 8 10 11 7 7 11 12 13 14 13 15 14 11
3 3 3 2 2 4 4 5 3 6 3 4 5 3 1 3 7 5 6 6 6 6 7 8 7 4 5 6 6 6 6 8 9 10 13 12 10 10 11 10 10 12 12 13 14 13 14 13 11
3 3 4 2 5 3 2 5 4 3 5 4 4 3 3 4 3 5 5 5 5 7 6 7 7 4 3 4 4 4 5 7 7 7 7 9 9 10 11 11 11 14 14 14 14 14 12 13 12
3 3 1 2 3 1 2 3 1 6 1 8 2 3 2 2 2 3 5 4 4 4 4 4 5 5 4 2 5 5 6 7 8 9 8 6 8 9 11 12 13 15 16 16 16 15 14 12 11
4 4 2 4 3 3 2 4 4 3 3 4 3 3 5 6 3 2 4 4 2 1 1 2 2 3 2 0 3 5 9 10 11 10 11 11 10 11 11 12 14 16 17 17 17 18 18 16 12
4 3 1 1 3 3 3 4 4 4 5 3 5 3 0 2 3 3 3 4 4 4 3 2 2 3 7 6 5 5 8 12 14 14 14 14 14 13 12 15 16 17 18 19 18 17 17 15 14
2 2 2 3 5 5 3 5 5 3 5 7 3 7 8 4 7 6 5 5 6 5 3 3 3 2 3 6 8 9 6 7 11 14 15 15 12 15 13 14 15 14 18 13 17 15 13 14 14
3 3 3 2 3 3 1 5 6 5 7 8 9 7 5 8 7 6 7 7 6 7 6 5 4 5 6 6 6 9 7 8 6 10 15 11 9 9 9 10 12 12 13 11 12 11 13 14 15
2 4 4 5 3 2 3 6 5 11 9 9 9 10 11 9 9 8 9 8 8 7 8 8 6 6 7 6 8 8 8 9 10 7 9 12 8 6 11 9 12 13 13 13 11 11 11 12 13
3 4 5 3 3 2 4 4 1 6 3 5 4 7 8 9 10 6 7 8 8 8 8 8 7 7 9 5 7 6 10 13 13 13 11 8 10 10 8 5 8 12 15 15 14 11 9 8 12
3 5 6 4 2 2 2 3 5 7 5 5 6 7 8 9 9 9 8 8 9 8 9 8 8 7 6 7 7 8 11 11 9 12 16 14 11 9 9 6 6 11 16 17 15 13 12 8 9
1 1 4 1 4 1 5 6 4 2 2 6 9 9 9 11 10 9 9 8 8 7 8 8 6 7 8 7 6 7 10 11 11 14 16 17 15 13 8 6 7 12 13 13 9 9 9 9 7
3 2 2 1 2 2 2 6 7 7 13 11 8 8 8 7 7 8 9 9 9 9 8 8 8 9 10 9 7 8 11 8 11 14 13 15 17 17 9 5 6 12 8 8 9 9 10 9 9
2 3 4 3 4 3 6 12 8 10 7 9 7 3 8 9 8 10 10 10 8 8 8 8 8 8 9 6 5 4 5 6 10 10 12 15 16 16 12 8 6 9 6 8 7 9 9 9 10
2 2 4 5 3 7 5 11 18 12 6 3 1 10 8 9 8 11 13 15 15 13 13 11 11 11 7 6 3 4 9 5 5 7 16 14 15 17 12 9 9 9 10 10 11 9 11 9 6
3 2 5 7 9 6 7 16 12 5 4 7 8 6 7 11 13 14 16 13 13 13 15 15 14 12 10 6 4 5 4 5 8 7 10 18 22 21 14 13 11 12 10 11 11 10 7 7 6
3 1 2 1 9 3 8 6 1 2 4 9 6 4 9 11 14 14 15 15 14 14 14 15 16 16 13 14 9 6 3 2 3 4 5 9 14 16 13 13 11 12 11 11 12 12 13 9 7
0 2 3 2 6 3 5 4 5 5 3 5 5 7 7 8 13 14 16 15 17 16 16 15 18 16 14 14 10 11 10 11 9 9 8 8 9 12 16 14 11 13 11 13 12 10 12 12 10
5 2 1 2 1 4 3 3 7 4 3 6 8 7 8 9 11 16 16 16 16 15 15 14 16 14 14 13 11 9 10 9 7 5 8 10 11 13 13 13 15 13 11 12 13 13 12 10 11
4 3 4 1 1 2 4 4 5 3 3 3 4 7 8 10 12 12 13 14 15 15 15 16 16 16 17 13 12 11 11 11 8 7 7 8 8 10 14 15 15 15 12 13 11 14 15 13 11
8 5 3 4 1 4 5 2 8 5 4 3 4 7 8 8 9 11 14 15 15 18 18 16 17 17 14 16 9 8 11 12 13 11 8 10 9 9 12 13 13 13 13 12 11 10 12 13 12
2 2 4 3 2 4 5 5 6 6 6 6 6 7 7 6 6 8 11 13 14 16 17 17 17 16 15 13 15 11 10 8 9 11 10 9 9 11 13 13 14 15 14 10 10 9 10 11 11
2 2 2 2 1 1 3 7 7 5 3 5 8 6 6 7 7 8 9 9 11 12 14 15 16 16 14 14 12 14 11 8 9 10 9 8 11 11 13 14 14 14 14 12 11 9 8 9 11
1 4 2 1 2 4 5 5 5 3 8 7 7 8 8 8 7 7 9 9 9 10 11 12 13 14 14 14 12 11 14 12 8 9 10 10 11 12 13 13 15 14 13 12 11 10 8 9 9
3 2 3 3 3 3 3 6 6 10 7 7 7 8 8 8 7 7 7 7 8 9 10 11 12 13 13 14 14 13 13 14 11 9 8 11 11 11 11 14 14 13 11 12 12 11 9 12 10
5 6 5 4 2 2 3 6 4 6 6 5 9 9 7 8 7 6 6 7 8 9 9 11 12 12 11 14 14 14 13 13 10 9 9 10 11 10 11 13 11 10 10 10 12 11 11 12 11
Wind_Direction
323 316 284 34 63 65 269 286 99 36 43 338 330 69 114 47 35 131 207 360 343 328 303 205 177 172 172 169 167 161 155 151 153 150 146 150 130 120 124 134 142 151 178 127 121 120 109 112 116
321 317 44 74 88 81 281 7 87 35 237 355 31 23 51 77 43 92 257 335 347 349 8 189 174 171 171 173 169 168 163 163 164 166 177 186 146 126 143 140 131 64 133 128 126 118 114 119 123
324 264 83 99 116 165 144 33 117 65 20 27 25 66 70 349 20 98 229 10 341 17 29 152 170 169 169 174 171 174 171 171 173 183 212 163 153 137 158 157 112 121 125 137 131 127 124 125 129
336 9 25 93 190 8 93 96 45 83 18 31 53 74 65 309 98 138 109 56 12 24 39 55 120 150 169 173 177 179 183 179 181 189 195 180 172 150 160 166 140 140 140 135 137 141 128 136 139
21 66 63 84 232 107 96 69 43 19 116 14 39 49 85 44 106 95 99 84 67 31 41 47 79 149 163 174 174 184 189 192 190 191 188 191 182 166 164 172 155 157 152 154 147 145 137 149 152
22 96 74 207 202 134 48 22 40 21 10 357 46 58 101 81 66 35 103 92 90 71 56 56 47 74 148 169 171 176 190 201 211 216 201 191 194 181 179 180 167 162 161 159 157 151 154 162 165
99 85 195 224 139 77 47 334 54 21 27 1 323 72 116 42 55 30 23 111 99 82 69 61 63 60 125 153 180 195 208 220 225 239 238 206 197 196 188 188 176 169 168 166 164 158 163 175 178
89 94 276 285 201 116 340 34 85 52 356 311 41 49 172 225 79 357 326 52 68 92 74 68 68 71 64 153 197 205 223 233 235 237 241 228 214 210 204 196 190 181 177 175 169 167 169 186 186
26 60 347 358 57 155 42 71 13 318 339 337 314 111 172 171 177 2 350 339 327 332 75 73 23 14 36 103 218 233 230 229 234 236 233 230 223 217 210 211 206 195 183 181 181 176 176 183 189
76 96 120 39 45 69 41 44 12 19 335 307 316 339 326 218 174 203 244 288 314 295 280 282 50 8 358 351 340 276 240 229 226 222 224 222 220 218 213 213 211 207 192 188 185 183 183 183 187
335 120 179 43 100 67 15 358 344 344 282 227 266 314 317 2 333 321 291 266 253 265 274 289 285 293 329 323 326 320 316 281 225 217 218 215 215 219 214 206 206 200 198 193 189 185 185 185 187
53 99 82 104 96 81 356 320 316 263 238 283 284 284 302 324 310 290 283 281 285 290 288 302 319 308 282 260 277 283 297 301 289 231 216 199 206 212 213 204 191 188 190 190 192 190 189 192 200
39 358 21 346 334 234 224 235 235 258 260 265 277 297 295 297 293 289 277 274 267 265 265 264 267 265 269 271 265 266 270 278 272 266 257 225 208 217 212 200 193 190 185 190 192 196 198 203 209
301 329 289 274 263 303 279 267 81 268 266 222 260 268 277 276 270 270 275 269 268 261 261 256 260 262 267 256 254 256 260 262 269 273 258 254 229 217 215 202 197 193 190 196 195 197 201 210 216
343 340 322 238 226 187 13 329 216 246 274 233 297 289 285 277 282 269 261 263 256 254 248 237 234 234 235 248 262 259 256 265 260 258 266 260 244 232 216 213 199 204 198 198 200 202 204 208 218
324 57 2 286 128 208 75 264 328 200 174 281 271 264 263 266 262 267 273 268 262 252 246 249 245 239 243 240 239 246 256 252 252 255 251 256 256 233 221 212 211 204 202 204 204 200 205 211 211
340 248 208 65 251 154 146 267 270 291 304 301 292 285 287 296 321 333 337 336 337 321 294 259 236 226 229 234 233 233 240 240 246 249 250 248 247 249 215 219 215 205 202 207 215 202 203 210 215
335 355 344 327 327 331 275 267 285 272 294 285 328 27 23 11 1 348 351 353 345 341 334 329 315 296 276 248 243 246 236 238 238 245 244 243 246 240 234 229 217 205 209 212 212 215 210 210 221
15 354 296 273 350 358 276 304 281 288 267 287 171 31 9 353 329 342 347 340 335 329 321 313 305 298 290 282 230 234 242 234 241 240 246 247 243 238 231 230 221 217 215 210 210 212 218 219 213
22 325 293 290 5 346 308 291 290 282 164 118 58 18 356 343 346 340 330 323 317 312 308 305 298 291 280 261 233 225 202 221 231 234 237 240 246 244 238 232 224 220 219 219 213 208 213 213 188
334 305 9 273 330 268 333 306 128 180 80 54 48 17 6 351 334 329 326 324 316 311 307 302 294 284 277 271 261 243 244 264 236 233 244 235 238 244 242 246 227 224 215 214 216 210 211 215 201
23 19 6 357 47 287 52 273 287 204 77 48 5 12 339 329 335 327 325 321 321 318 315 308 307 280 269 263 253 229 236 241 236 232 240 240 233 238 240 241 246 229 225 223 213 210 215 221 210
209 300 346 144 53 54 319 69 273 188 322 342 356 338 326 327 338 328 324 321 317 319 320 322 317 313 276 257 246 237 238 243 239 226 227 234 244 245 243 238 239 238 231 225 220 219 219 220 222
332 31 27 73 144 21 251 152 274 229 211 292 300 323 313 328 329 322 320 324 326 331 331 331 326 324 331 272 242 222 228 237 238 229 232 239 244 249 243 238 232 234 233 222 217 222 220 224 227
49 62 333 354 291 220 328 33 250 185 197 185 277 292 299 313 325 328 333 334 335 338 331 330 331 326 329 334 276 250 239 239 243 238 236 239 243 245 247 239 235 232 230 225 217 217 220 216 221
64 115 144 229 322 277 359 241 263 178 175 185 231 254 269 322 326 323 327 329 333 334 331 327 329 329 333 340 330 289 254 250 246 239 234 239 243 247 249 246 236 232 228 213 209 209 220 217 215
254 307 259 118 156 313 237 276 289 184 203 228 255 254 322 306 312 313 310 313 319 320 329 329 328 329 334 335 327 325 295 244 246 243 236 237 242 248 250 246 234 229 224 217 208 216 216 224 222
176 143 161 146 318 298 284 268 233 229 247 271 313 316 286 281 290 290 294 296 302 309 314 323 329 331 330 329 328 318 315 279 232 232 234 233 240 241 253 258 236 228 221 213 208 218 214 217 221
162 223 219 182 159 191 296 268 217 196 211 246 296 286 278 282 273 273 282 297 299 306 319 320 321 333 336 332 326 322 319 316 269 236 239 244 249 248 250 256 247 236 218 213 209 212 212 220 221
175 199 176 125 250 216 164 275 247 199 213 229 265 282 271 269 274 279 295 304 298 312 322 317 330 330 327 336 326 320 319 316 328 264 237 232 233 239 245 251 259 218 215 209 206 206 210 217 217